This demonstration page uses our WeatherBlox Daily Observations layout. Learn more.

38.80484, -77.04692

Hourly Observations for July 4, 2019

Temp ( °F °C ) Dew Point ( °F °C ) Humidity (%) Winds ( mph kmh ) Pressure ( in mb ) Visibility ( mi km ) Precip ( " mm )
12:52 am 00:52 Mostly Cloudy 82 27.8 70 21.1 67 67 NW 6 9 29.94 1014 10 16.09344 0 0
2:52 am 02:52 Mostly Cloudy 80 26.7 69 20.6 69 69 NNW 6 9 29.94 1014 10 16.09344 0 0
4:52 am 04:52 Mostly Cloudy 79 26.1 70 21.1 74 74 N 3 6 29.94 1014 10 16.09344 0 0
5:52 am 05:52 Mostly Cloudy 78 25.6 71 21.7 79 79 NNW 6 9 29.97 1015 10 16.09344 0 0
6:52 am 06:52 Mostly Cloudy 80 26.7 72 22.2 76 76 NE 7 11 29.97 1015 10 16.09344 0 0
7:52 am 07:52 Cloudy 80 26.7 73 22.8 79 79 NE 6 9 30 1016 10 16.09344 0 0
8:52 am 08:52 Mostly Cloudy 82 27.8 73 22.8 74 74 NE 5 7 30 1016 10 16.09344 0 0
9:52 am 09:52 Mostly Cloudy 85 29.4 76 24.4 75 75 SSE 5 7 30 1016 10 16.09344 0 0
10:52 am 10:52 Mostly Cloudy 87 30.6 75 23.9 67 67 SSW 7 11 30.03 1017 10 16.09344 0 0
11:52 am 11:52 Mostly Cloudy 88 31.1 73 22.8 61 61 SSW 9 15 30.03 1017 10 16.09344 0 0
12:52 pm 12:52 Mostly Cloudy 89 31.7 72 22.2 57 57 SSW 8 13 30.03 1017 10 16.09344 0 0
1:52 pm 13:52 Mostly Cloudy 90 32.2 71 21.7 54 54 SSE 7 11 30 1016 10 16.09344 0 0
2:01 pm 14:01 Mostly Cloudy with Nearby Thunderstorms 90 32.2 71 21.7 54 54 SSE 6 9 30.03 1017 10 16.09344 0 0
2:30 pm 14:30 Mostly Cloudy with Thunderstorms 90 32.2 71 21.7 54 54 Calm 30.03 1017 10 16.09344 0 0
2:40 pm 14:40 Mostly Cloudy with Nearby Thunderstorms 88 31.1 74 23.3 63 63 NE 17 28 30 1016 10 16.09344 0 0
2:52 pm 14:52 Mostly Cloudy with Thunderstorms 89 31.7 73 22.8 59 59 NE 14 22 29.97 1015 10 16.09344 0 0
3:52 pm 15:52 Mostly Cloudy with Light Thunderstorms 82 27.8 71 21.7 69 69 N 13 20 30 1016 10 16.09344 0.001 0.001
4:15 pm 16:15 Cloudy with Heavy Thunderstorms 79 26.1 73 22.8 82 82 N 6 9 30.03 1017 3 4.828032 0.03 0.762
4:23 pm 16:23 Cloudy with Heavy Thunderstorms 80 26.7 73 22.8 79 79 E 10 17 30.03 1017 2.5 4.02336 0.08 2.032
4:27 pm 16:27 Cloudy with Heavy Thunderstorms 80 26.7 72 22.2 76 76 ENE 9 15 30.03 1017 3 4.828032 0.1 2.54
4:44 pm 16:44 Cloudy with Light Thunderstorms 79 26.1 74 23.3 85 85 SSE 8 13 30.06 1018 8 12.874752 0.13 3.302
4:52 pm 16:52 Cloudy with Thunderstorms 77 25 73 22.8 88 88 SE 9 15 30.03 1017 5 8.04672 0.14 3.556
5:28 pm 17:28 Mostly Cloudy with Light Thunderstorms 76 24.4 72 22.2 88 88 ESE 13 20 30.03 1017 10 16.09344 0.06 1.524
5:46 pm 17:46 Mostly Cloudy with Nearby Thunderstorms 75 24 72 22 89 89 S 8 13 30.03 1017 10 16.09344 0.06 1.524
5:52 pm 17:52 Mostly Cloudy 77 25 71 21.7 82 82 S 7 11 30 1016 10 16.09344 0.06 1.524
6:06 pm 18:06 Mostly Cloudy with Nearby Thunderstorms 77 25 71 21.7 82 82 WSW 9 15 30.03 1017 10 16.09344 0 0
6:20 pm 18:20 Mostly Cloudy with Light Rain 76 24.4 72 22.2 88 88 SW 7 11 30.03 1017 10 16.09344 0.001 0.001
7:52 pm 19:52 Mostly Cloudy with Light Rain 77 25 72 22.2 85 85 W 3 6 30.06 1018 10 16.09344 0.001 0.001
8:52 pm 20:52 Mostly Cloudy 78 25.6 73 22.8 85 85 W 3 6 30.06 1018 10 16.09344 0.001 0.001
9:48 pm 21:48 Mostly Cloudy 77 25 72 22 83 83 SW 6 9 30.09 1019 9 14.484096 0 0
9:52 pm 21:52 Mostly Cloudy 77 25 73 22.8 88 88 S 5 7 30.06 1018 10 16.09344 0 0
10:52 pm 22:52 Cloudy with Light Thunderstorms 78 25.6 74 23.3 87 87 ESE 6 9 30.06 1018 4 6.437376 0.001 0.001
10:54 pm 22:54 Mostly Cloudy with Light Thunderstorms 78 25.6 74 23.3 87 87 ESE 5 7 30.09 1019 3 4.828032 0.001 0.001
11:13 pm 23:13 Cloudy with Nearby Thunderstorms 77 25 74 23.3 90 90 E 6 9 30.09 1019 3 4.828032 0.001 0.001
11:21 pm 23:21 Cloudy with Mist and Fog 77 25 73 22.8 88 88 E 3 6 30.09 1019 3 4.828032 0.001 0.001
11:52 pm 23:52 Cloudy with Haze 77 25 72 22.2 85 85 E 3 6 30.06 1018 3 4.828032 0.001 0.001

Powered by AerisWeather